Location: Boone Canyon
(38.3180°N, 119.2504°W)
Time: 17:44:25
(UTC+00:00)

Cosmos 1727 Rocket - Pass Details

Date: 18 September 2020
Orbit: 960 x 997 km, 82.9° (Epoch: 19 October)

Event Time Altitude Azimuth Distance (km) Brightness Sun altitude
Rises 12:12:37 0° 186° (S) 3,700 6.8 -18.0°
Reaches altitude 10° 12:15:08 10° 186° (S) 2,755 6.1 -17.5°
Maximum altitude 12:21:29 87° 274° (W) 1,003 4.0 -16.4°
Drops below altitude 10° 12:27:52 10° 6° (N) 2,764 6.6 -15.1°
Sets 12:30:23 0° 7° (N) 3,712 7.3 -14.7°
